���t,����,�O�C���x,�����t���O,�O�C���Ύ��x,�����t���O,���ԉ��x,�����t���O,���ԑ��Ύ��x,�����t���O,�g�C������,�����t���O,�L�b�`�����x,�����t���O,��󒲎����x,�����t���O
2003/5/1,0:00,16.3,0,59,0,23.7,0,56.8,0,18.6,0,23.3,0,22.3,0
2003/5/1,0:15,16.2,0,58,0,23.6,0,56.9,0,18.7,0,23.3,0,22.3,0
2003/5/1,0:30,16.1,0,58,0,23.4,0,57.3,0,18.8,0,23.2,0,22.3,0
2003/5/1,0:45,15.9,0,59,0,23.3,0,57.5,0,18.8,0,23.1,0,22.4,0
2003/5/1,1:00,15.8,0,60,0,23.2,0,57.8,0,18.9,0,23,0,22.4,0
2003/5/1,1:15,15.6,0,61,0,23.1,0,57.8,0,18.9,0,22.9,0,22.4,0
2003/5/1,1:30,15.4,0,63,0,23,0,57.9,0,19,0,22.8,0,22.4,0
2003/5/1,1:45,15.3,0,63,0,22.9,0,58.1,0,19,0,22.8,0,22.4,0
2003/5/1,2:00,15.3,0,63,0,22.7,0,58.2,0,19.1,0,22.7,0,22.4,0
2003/5/1,2:15,15.1,0,64,0,22.6,0,58.4,0,19.1,0,22.6,0,22.4,0
2003/5/1,2:30,14.7,0,67,0,22.6,0,58.5,0,19.2,0,22.6,0,22.4,0
2003/5/1,2:45,14.4,0,69,0,22.5,0,58.5,0,19.2,0,22.5,0,22.4,0
2003/5/1,3:00,14.1,0,70,0,22.4,0,58.5,0,19.2,0,22.4,0,22.3,0
2003/5/1,3:15,14.1,0,68,0,22.3,0,58.5,0,19.3,0,22.4,0,22.3,0
2003/5/1,3:30,14.4,0,67,0,22.2,0,58.7,0,19.3,0,22.3,0,22.2,0
2003/5/1,3:45,13.7,0,72,0,22.1,0,59,0,19.3,0,22.2,0,22.2,0
2003/5/1,4:00,13.2,0,75,0,22,0,58.9,0,19.3,0,22.1,0,22.1,0
2003/5/1,4:15,13.1,0,76,0,21.9,0,58.9,0,19.4,0,22.1,0,22.1,0
2003/5/1,4:30,13.1,0,74,0,21.8,0,58.7,0,19.4,0,22,0,22.1,0
2003/5/1,4:45,13.2,0,72,0,21.8,0,58.6,0,19.4,0,21.9,0,22.1,0
2003/5/1,5:00,13.1,0,72,0,21.7,0,58.7,0,19.4,0,21.9,0,22,0
2003/5/1,5:15,12.9,0,72,0,21.6,0,58.7,0,19.5,0,21.8,0,21.9,0
2003/5/1,5:30,12.6,0,76,0,21.5,0,58.8,0,19.5,0,21.7,0,21.9,0
2003/5/1,5:45,12.5,0,74,0,21.5,0,58.8,0,19.5,0,21.7,0,21.9,0
2003/5/1,6:00,12.6,0,76,0,21.4,0,58.9,0,19.5,0,21.6,0,21.8,0
2003/5/1,6:15,12.5,0,79,0,21.3,0,59.1,0,19.5,0,21.5,0,21.8,0
2003/5/1,6:30,12.8,0,78,0,21.4,0,59.8,0,19.5,0,21.5,0,21.7,0
2003/5/1,6:45,13.3,0,73,0,21.4,0,60.7,0,19.5,0,21.6,0,21.7,0
2003/5/1,7:00,14,0,74,0,21.4,0,59.6,0,19.5,0,21.6,0,21.7,0
2003/5/1,7:15,14.8,0,72,0,21.5,0,57.7,0,19.5,0,21.6,0,21.6,0
2003/5/1,7:30,15.5,0,70,0,21.6,0,58.2,0,18.2,0,21.7,0,21.6,0
2003/5/1,7:45,16.2,0,69,0,21.5,0,56.8,0,18.3,0,21.6,0,21.6,0
2003/5/1,8:00,18.1,0,64,0,21.4,0,54.1,0,18,0,21.3,0,21.6,0
2003/5/1,8:15,18.5,0,56,0,21.4,0,53,0,18.2,0,21,0,21.6,0
2003/5/1,8:30,18.4,0,58,0,21.6,0,51.4,0,18.3,0,21,0,21.6,0
2003/5/1,8:45,19,0,57,0,21.8,0,51.5,0,18.4,0,21.2,0,21.6,0
2003/5/1,9:00,19.3,0,54,0,21.8,0,53.1,0,18.1,0,21.1,0,21.6,0
2003/5/1,9:15,19.9,0,53,0,21.9,0,52.2,0,18.2,0,21,0,21.5,0
2003/5/1,9:30,20.6,0,51,0,21.9,0,51.7,0,18.3,0,21,0,21.4,0
2003/5/1,9:45,21.5,0,49,0,22,0,51.7,0,18.4,0,21,0,21.4,0
2003/5/1,10:00,22.1,0,46,0,22,0,51.6,0,18.4,0,21.1,0,21.4,0
2003/5/1,10:15,22.6,0,47,0,22.1,0,51.6,0,18.5,0,21.1,0,21.4,0
2003/5/1,10:30,23.2,0,44,0,22.2,0,51.7,0,18.6,0,21.1,0,21.4,0
2003/5/1,10:45,23.7,0,42,0,22.2,0,51.4,0,18.6,0,21.1,0,21.3,0
2003/5/1,11:00,24.3,0,40,0,22.3,0,51,0,18.6,0,21.1,0,21.3,0
2003/5/1,11:15,25,0,38,0,22.3,0,50.7,0,18.7,0,21.1,0,21.3,0
2003/5/1,11:30,25.2,0,38,0,22.4,0,50.6,0,18.7,0,21.2,0,21.3,0
2003/5/1,11:45,25.9,0,36,0,22.4,0,50.7,0,18.8,0,21.2,0,21.3,0
2003/5/1,12:00,26.4,0,35,0,22.5,0,50.6,0,18.8,0,21.3,0,21.3,0
2003/5/1,12:15,26.5,0,35,0,22.5,0,50.7,0,18.8,0,21.3,0,21.3,0
2003/5/1,12:30,27,0,33,0,22.6,0,50.9,0,18.9,0,21.4,0,21.3,0
2003/5/1,12:45,27.5,0,34,0,22.7,0,50.9,0,18.9,0,21.5,0,21.4,0
2003/5/1,13:00,27.5,0,35,0,22.7,0,50.8,0,18.9,0,21.6,0,21.4,0
2003/5/1,13:15,27.3,0,36,0,22.8,0,50.5,0,19,0,21.7,0,21.5,0
2003/5/1,13:30,26.8,0,38,0,22.9,0,51.6,0,19,0,21.7,0,21.5,0
2003/5/1,13:45,26.7,0,39,0,22.9,0,52.4,0,19.1,0,21.8,0,21.6,0
2003/5/1,14:00,26.6,0,39,0,23,0,52.8,0,19.1,0,21.9,0,21.6,0
2003/5/1,14:15,26,0,38,0,23.1,0,52.5,0,19.2,0,22,0,21.7,0
2003/5/1,14:30,25.4,0,38,0,23.2,0,52.4,0,19.2,0,22.2,0,21.7,0
2003/5/1,14:45,25.9,0,38,0,23.3,0,52.2,0,19.2,0,22.3,0,21.8,0
2003/5/1,15:00,25.5,0,38,0,23.3,0,51.8,0,19.3,0,22.4,0,21.9,0
2003/5/1,15:15,25.1,0,39,0,23.6,0,51,0,19.3,0,22.5,0,21.9,0
2003/5/1,15:30,24.4,0,39,0,23.9,0,49.5,0,19.4,0,22.7,0,22,0
2003/5/1,15:45,24.3,0,40,0,24,0,48.9,0,19.4,0,22.8,0,22.1,0
2003/5/1,16:00,23.8,0,42,0,24.1,0,48.8,0,19.5,0,22.9,0,22.1,0
2003/5/1,16:15,22.6,0,45,0,24.1,0,48,0,18.2,0,23,0,22.2,0
2003/5/1,16:30,22.2,0,47,0,24,0,48.2,0,18.2,0,22.9,0,22.2,0
2003/5/1,16:45,22.2,0,50,0,23.9,0,49.3,0,18.4,0,22.9,0,22.3,0
2003/5/1,17:00,22.7,0,50,0,23.9,0,50.5,0,18.5,0,22.9,0,22.4,0
2003/5/1,17:15,22.7,0,48,0,24,0,52.7,0,18,0,23,0,22.4,0
2003/5/1,17:30,21.7,0,49,0,24,0,51,0,18.2,0,23,0,22.5,0
2003/5/1,17:45,21.5,0,50,0,23.7,0,49.4,0,18.4,0,23,0,22.5,0
2003/5/1,18:00,20.8,0,51,0,23.6,0,49.7,0,18.5,0,22.8,0,22.6,0
2003/5/1,18:15,20.6,0,51,0,23.7,0,49.4,0,18.6,0,22.8,0,22.6,0
2003/5/1,18:30,20.5,0,52,0,23.6,0,49.4,0,18.2,0,22.7,0,22.6,0
2003/5/1,18:45,20.1,0,56,0,23.5,0,48.3,0,18.4,0,22.6,0,22.7,0
2003/5/1,19:00,19.7,0,58,0,23.4,0,50.7,0,18.1,0,22.4,0,22.6,0
2003/5/1,19:15,18.9,0,61,0,23.5,0,52.5,0,18.3,0,22.5,0,22.6,0
2003/5/1,19:30,18.5,0,65,0,23.5,0,51.2,0,18.5,0,22.5,0,22.7,0
2003/5/1,19:45,18.4,0,67,0,23.5,0,52.2,0,18.6,0,22.5,0,22.7,0
2003/5/1,20:00,17.5,0,72,0,23.6,0,53,0,18.7,0,22.6,0,22.7,0
2003/5/1,20:15,17.2,0,75,0,23.7,0,54.4,0,18.7,0,22.7,0,22.7,0
2003/5/1,20:30,17.3,0,75,0,23.8,0,56.7,0,18.8,0,23,0,22.7,0
2003/5/1,20:45,17.2,0,76,0,23.8,0,55.4,0,18.8,0,23.1,0,22.7,0
2003/5/1,21:00,17,0,76,0,23.8,0,55.1,0,18.9,0,23.1,0,22.7,0
2003/5/1,21:15,16.6,0,76,0,23.8,0,57,0,18.9,0,23.1,0,22.7,0
2003/5/1,21:30,15.9,0,79,0,23.7,0,55.9,0,19,0,23.2,0,22.7,0
2003/5/1,21:45,16,0,80,0,23.7,0,55.8,0,19,0,23.2,0,22.7,0
2003/5/1,22:00,15.8,0,79,0,23.7,0,58.4,0,19,0,23.1,0,22.7,0
2003/5/1,22:15,15.7,0,79,0,24.1,0,55.3,0,19.1,0,23.4,0,22.8,0
2003/5/1,22:30,15.4,0,80,0,24.1,0,54.8,0,19.1,0,23.4,0,22.8,0
2003/5/1,22:45,15.4,0,80,0,23.9,0,55.3,0,18.2,0,23.3,0,22.7,0
2003/5/1,23:00,15.1,0,80,0,23.9,0,54.8,0,18.4,0,23.3,0,22.6,0
2003/5/1,23:15,14.9,0,79,0,23.9,0,54.6,0,18.5,0,23.2,0,22.5,0
2003/5/1,23:30,14.8,0,78,0,23.8,0,54.4,0,18.6,0,23.1,0,22.4,0
2003/5/1,23:45,14.6,0,80,0,23.7,0,54,0,18.7,0,23,0,22.3,0
2003/5/2,0:00,14.4,0,81,0,23.5,0,53.9,0,18.7,0,22.9,0,22.1,0
2003/5/2,0:15,14.1,0,83,0,23.4,0,53.9,0,18.8,0,22.8,0,22,0
2003/5/2,0:30,14,0,84,0,23.3,0,53.9,0,18.8,0,22.7,0,21.9,0
2003/5/2,0:45,14,0,75,0,23.1,0,54,0,18.9,0,22.6,0,21.8,0
2003/5/2,1:00,13.8,0,79,0,23,0,53.6,0,19,0,22.6,0,21.7,0
2003/5/2,1:15,13.5,0,77,0,22.9,0,53.5,0,19,0,22.5,0,21.5,0
2003/5/2,1:30,13.7,0,78,0,22.8,0,53.4,0,19.1,0,22.4,0,21.4,0
2003/5/2,1:45,13.8,0,77,0,22.6,0,53.2,0,19.1,0,22.3,0,21.3,0
2003/5/2,2:00,13.5,0,79,0,22.5,0,53.3,0,19.2,0,22.2,0,21.2,0
2003/5/2,2:15,13.5,0,80,0,22.4,0,53.5,0,19.2,0,22.1,0,21.1,0
2003/5/2,2:30,13.4,0,81,0,22.3,0,53.6,0,19.2,0,22,0,21,0
2003/5/2,2:45,13.1,0,82,0,22.1,0,53.6,0,19.3,0,21.9,0,20.9,0
2003/5/2,3:00,13,0,84,0,22,0,53.9,0,19.3,0,21.9,0,20.8,0
2003/5/2,3:15,13.1,0,84,0,21.9,0,54.1,0,19.3,0,21.8,0,20.7,0
2003/5/2,3:30,12.9,0,83,0,21.8,0,54.2,0,19.3,0,21.7,0,20.6,0
2003/5/2,3:45,12.9,0,84,0,21.7,0,54.3,0,19.4,0,21.6,0,20.5,0
2003/5/2,4:00,12.9,0,84,0,21.6,0,54.3,0,19.4,0,21.5,0,20.5,0
2003/5/2,4:15,12.8,0,84,0,21.5,0,54.4,0,19.4,0,21.4,0,20.4,0
2003/5/2,4:30,12.8,0,83,0,21.4,0,54.4,0,19.4,0,21.4,0,20.3,0
2003/5/2,4:45,12.7,0,83,0,21.3,0,54.5,0,19.4,0,21.3,0,20.2,0
2003/5/2,5:00,13.5,0,83,0,21.2,0,54.8,0,19.4,0,21.2,0,20.1,0
2003/5/2,5:15,14.6,0,77,0,21.1,0,55,0,19.4,0,21.1,0,20,0
2003/5/2,5:30,15.4,0,72,0,21,0,55.2,0,19.4,0,21,0,20,0
2003/5/2,5:45,14.4,0,74,0,20.9,0,55.5,0,19.4,0,21,0,19.9,0
2003/5/2,6:00,13.6,0,80,0,20.9,0,55.7,0,19.5,0,20.9,0,19.9,0
2003/5/2,6:15,13.8,0,81,0,20.8,0,55.4,0,18.2,0,20.8,0,19.9,0
2003/5/2,6:30,14.2,0,80,0,20.9,0,56.8,0,18.3,0,20.8,0,20.1,0
2003/5/2,6:45,14.8,0,78,0,20.7,0,57.1,0,18.4,0,20.6,0,20.2,0
2003/5/2,7:00,16.5,0,74,0,20.9,0,57.7,0,18.4,0,20.6,0,20.3,0
2003/5/2,7:15,17.5,0,68,0,20.9,0,56.5,0,18.2,0,20.7,0,20.4,0
2003/5/2,7:30,18.1,0,64,0,20.9,0,57.5,0,18.3,0,20.6,0,20.4,0
2003/5/2,7:45,18.7,0,61,0,21,0,55.5,0,18.4,0,20.6,0,20.5,0
2003/5/2,8:00,18.9,0,57,0,21.1,0,56,0,18.4,0,20.7,0,20.6,0
2003/5/2,8:15,19.4,0,56,0,21.2,0,54.5,0,18.1,0,20.8,0,20.6,0
2003/5/2,8:30,19.8,0,53,0,21.3,0,53,0,18.2,0,20.9,0,20.6,0
2003/5/2,8:45,20.2,0,51,0,21.5,0,52.5,0,18.3,0,21,0,20.6,0
2003/5/2,9:00,20.8,0,49,0,21.6,0,51.7,0,18.3,0,21,0,20.6,0
2003/5/2,9:15,21.3,0,48,0,21.8,0,52.2,0,18.4,0,21.1,0,20.6,0
2003/5/2,9:30,21.6,0,48,0,21.7,0,51.5,0,18.4,0,21.1,0,20.7,0
2003/5/2,9:45,22.3,0,44,0,21.8,0,51.8,0,18.5,0,21.1,0,20.9,0
2003/5/2,10:00,23.1,0,45,0,21.9,0,59.7,0,18.5,0,21.3,0,21.1,0
2003/5/2,10:15,24.1,0,40,0,22,0,53.7,0,18.6,0,21.4,0,21.3,0
2003/5/2,10:30,25.6,0,40,0,22.1,0,53.2,0,18.3,0,21.5,0,21.5,0
2003/5/2,10:45,26.5,0,38,0,22.2,0,52.4,0,18.4,0,21.5,0,21.7,0
2003/5/2,11:00,27,0,37,0,22.2,0,53.6,0,18.5,0,21.5,0,21.8,0
2003/5/2,11:15,27.5,0,33,0,22.3,0,53.7,0,18.6,0,21.6,0,21.9,0
2003/5/2,11:30,28.3,0,30,0,22.4,0,51.2,0,18.7,0,21.8,0,22,0
2003/5/2,11:45,28.8,0,30,0,22.5,0,49.6,0,18.7,0,21.8,0,22,0
2003/5/2,12:00,29.2,0,28,0,22.6,0,49.1,0,18.3,0,22,0,22.1,0
2003/5/2,12:15,29.6,0,28,0,22.6,0,49.3,0,18.4,0,22.1,0,22.2,0
2003/5/2,12:30,29.9,0,28,0,22.7,0,48.9,0,18.5,0,22.1,0,22.3,0
2003/5/2,12:45,30,0,24,0,22.8,0,47.9,0,18.6,0,22.2,0,22.3,0
2003/5/2,13:00,30.2,0,25,0,22.9,0,44.4,0,18.7,0,22.3,0,22.5,0
2003/5/2,13:15,30,0,26,0,23,0,46.1,0,18.8,0,22.4,0,22.6,0
2003/5/2,13:30,30.1,0,26,0,23.1,0,47.3,0,18.8,0,22.5,0,22.6,0
2003/5/2,13:45,29.7,0,26,0,23.2,0,47.7,0,18.9,0,22.6,0,22.7,0
2003/5/2,14:00,29.4,0,28,0,23.4,0,47.6,0,19,0,22.9,0,22.7,0
2003/5/2,14:15,29.2,0,29,0,23.5,0,47.6,0,19.1,0,23.1,0,22.8,0
2003/5/2,14:30,29,0,29,0,23.7,0,46.8,0,19.1,0,23.5,0,23,0
2003/5/2,14:45,28.9,0,29,0,23.3,0,46,0,19.2,0,23.6,0,23.2,0
2003/5/2,15:00,28.8,0,31,0,23.3,0,46.9,0,19.3,0,23.5,0,23.4,0
2003/5/2,15:15,28.3,0,30,0,23.4,0,47.6,0,19.3,0,23.5,0,23.4,0
2003/5/2,15:30,28.1,0,32,0,23.5,0,46.2,0,18.4,0,23.6,0,23.4,0
2003/5/2,15:45,27.7,0,33,0,23.7,0,45.4,0,18.6,0,23.7,0,23.4,0
2003/5/2,16:00,27.3,0,32,0,23.8,0,44.7,0,18.8,0,23.7,0,23.5,0
2003/5/2,16:15,27.3,0,33,0,23.8,0,43.7,0,19,0,23.8,0,23.5,0
2003/5/2,16:30,27,0,33,0,23.9,0,44.4,0,19.1,0,23.9,0,23.6,0
2003/5/2,16:45,26.7,0,34,0,23.9,0,44.6,0,19.3,0,24,0,23.6,0
2003/5/2,17:00,26.6,0,34,0,23.9,0,44.7,0,19.4,0,24,0,23.7,0
2003/5/2,17:15,26.3,0,36,0,24,0,45.3,0,19.5,0,24.1,0,23.7,0
2003/5/2,17:30,25.9,0,38,0,24,0,46.6,0,19.6,0,24.1,0,23.7,0
2003/5/2,17:45,25.3,0,39,0,24,0,46.9,0,19.7,0,24.1,0,23.7,0
2003/5/2,18:00,24.7,0,41,0,23.9,0,48.4,0,19.8,0,24,0,23.8,0
2003/5/2,18:15,24.4,0,42,0,23.9,0,49.2,0,18.6,0,24,0,23.8,0
2003/5/2,18:30,23.8,0,45,0,23.9,0,49.6,0,18.8,0,24,0,23.8,0
2003/5/2,18:45,23.6,0,46,0,23.9,0,49.7,0,19,0,23.9,0,23.8,0
2003/5/2,19:00,23.2,0,47,0,23.9,0,51.7,0,19.2,0,23.8,0,23.8,0
2003/5/2,19:15,22.2,0,52,0,24,0,54,0,18.8,0,23.9,0,23.9,0
2003/5/2,19:30,21.8,0,53,0,24.2,0,53.4,0,19,0,23.8,0,23.9,0
2003/5/2,19:45,21.4,0,55,0,24.3,0,52.8,0,18.4,0,23.8,0,23.9,0
2003/5/2,20:00,20.5,0,57,0,24.1,0,53.7,0,18.7,0,23.8,0,24,0
2003/5/2,20:15,19.7,0,59,0,24.1,0,51.4,0,18.8,0,23.7,0,24,0
2003/5/2,20:30,18.9,0,60,0,24.2,0,50.7,0,18.2,0,23.8,0,23.9,0
2003/5/2,20:45,18.4,0,62,0,24.2,0,51.1,0,18.5,0,24,0,23.5,0
2003/5/2,21:00,18.1,0,62,0,24.2,0,50.5,0,18.7,0,24,0,23.4,0
2003/5/2,21:15,17.9,0,64,0,24.2,0,50.3,0,18.9,0,23.9,0,23.2,0
2003/5/2,21:30,17.8,0,64,0,24.3,0,53.3,0,19,0,24,0,23.1,0
2003/5/2,21:45,17.5,0,66,0,24.3,0,54.6,0,19.1,0,24.2,0,23,0
2003/5/2,22:00,17.5,0,66,0,24.5,0,56.2,0,19.2,0,24.4,0,23.1,0
2003/5/2,22:15,17.1,0,68,0,24.9,0,56.4,0,19.2,0,24.5,0,23.1,0
2003/5/2,22:30,17,0,70,0,24.9,0,53.3,0,19.3,0,24.7,0,23.1,0
2003/5/2,22:45,17,0,69,0,24.6,0,51.8,0,18.3,0,24.5,0,23.2,0
2003/5/2,23:00,16.9,0,70,0,24.7,0,51.5,0,18.5,0,24.4,0,23.2,0
2003/5/2,23:15,16.7,0,71,0,24.7,0,51.4,0,18.6,0,24.3,0,23.2,0
2003/5/2,23:30,16.7,0,70,0,24.5,0,51.3,0,18.7,0,24.3,0,23.1,0
2003/5/2,23:45,16.5,0,74,0,24.4,0,51.5,0,18.7,0,24.2,0,23,0
2003/5/3,0:00,16.1,0,77,0,24.3,0,51.9,0,18.8,0,24.2,0,23,0
2003/5/3,0:15,16.2,0,73,0,24.3,0,52.4,0,18.9,0,24.1,0,22.8,0
2003/5/3,0:30,15.7,0,76,0,24.2,0,52.8,0,18.9,0,24.1,0,22.8,0
2003/5/3,0:45,15.5,0,78,0,24.2,0,52.9,0,18.9,0,24.1,0,22.7,0
2003/5/3,1:00,15.5,0,78,0,24.1,0,52.9,0,19,0,24,0,22.6,0
2003/5/3,1:15,15.6,0,76,0,24,0,52.9,0,19,0,24,0,22.5,0
2003/5/3,1:30,15.3,0,76,0,23.9,0,52.9,0,18.1,0,23.9,0,22.5,0
2003/5/3,1:45,15.2,0,78,0,23.8,0,52.6,0,18.2,0,23.8,0,22.4,0
2003/5/3,2:00,15.1,0,79,0,23.7,0,52.6,0,18.4,0,23.8,0,22.3,0
2003/5/3,2:15,14.8,0,80,0,23.6,0,52.5,0,18.5,0,23.7,0,22.2,0
2003/5/3,2:30,14.6,0,81,0,23.5,0,52.6,0,18.5,0,23.6,0,22.1,0
2003/5/3,2:45,14.5,0,82,0,23.4,0,52.7,0,18.6,0,23.5,0,22,0
2003/5/3,3:00,14.4,0,80,0,23.3,0,52.8,0,18.7,0,23.5,0,21.9,0
2003/5/3,3:15,14.4,0,81,0,23.2,0,53.1,0,18.8,0,23.4,0,21.8,0
2003/5/3,3:30,14.2,0,83,0,23.1,0,53.1,0,18.8,0,23.3,0,21.8,0
2003/5/3,3:45,14,0,83,0,22.9,0,53.3,0,18.9,0,23.2,0,21.7,0
2003/5/3,4:00,14.2,0,84,0,22.9,0,53.3,0,19,0,23.2,0,21.6,0
2003/5/3,4:15,14,0,83,0,22.7,0,53.6,0,19,0,23.1,0,21.5,0
2003/5/3,4:30,13.8,0,83,0,22.7,0,53.6,0,19.1,0,23,0,21.4,0
2003/5/3,4:45,13.6,0,85,0,22.5,0,53.7,0,19.1,0,22.9,0,21.3,0
2003/5/3,5:00,13.6,0,85,0,22.4,0,53.8,0,19.2,0,22.8,0,21.2,0
2003/5/3,5:15,13.5,0,84,0,22.4,0,54,0,19.2,0,22.8,0,21.1,0
2003/5/3,5:30,13.4,0,85,0,22.3,0,54,0,19.2,0,22.7,0,21,0
2003/5/3,5:45,13.3,0,85,0,22.2,0,54,0,19.3,0,22.6,0,20.9,0
2003/5/3,6:00,13.1,0,85,0,22.1,0,54.2,0,19.3,0,22.5,0,20.8,0
2003/5/3,6:15,13.2,0,89,0,22,0,54.3,0,19.3,0,22.5,0,20.8,0
2003/5/3,6:30,13.5,0,88,0,21.9,0,54.4,0,19.4,0,22.4,0,20.7,0
2003/5/3,6:45,14,0,86,0,21.9,0,54.5,0,19.4,0,22.3,0,20.7,0
2003/5/3,7:00,14.9,0,82,0,22,0,54.5,0,19.4,0,22.3,0,20.6,0
2003/5/3,7:15,15.9,0,77,0,22,0,54,0,19.4,0,22.3,0,20.8,0
2003/5/3,7:30,16.3,0,77,0,21.8,0,55.6,0,18.6,0,22,0,20.9,0
2003/5/3,7:45,18.6,0,70,0,21.9,0,55.8,0,18.5,0,21.5,0,21,0
2003/5/3,8:00,19.7,0,62,0,22,0,54.9,0,18.4,0,21.6,0,21.2,0
2003/5/3,8:15,20.5,0,59,0,22,0,56.8,0,18.5,0,21.7,0,21.4,0
2003/5/3,8:30,21.1,0,59,0,22.1,0,58.5,0,18.6,0,21.7,0,21.7,0
2003/5/3,8:45,21.5,0,57,0,22.2,0,57.1,0,18.7,0,21.8,0,21.9,0
2003/5/3,9:00,22.3,0,54,0,22.4,0,56.5,0,18.4,0,21.8,0,22.1,0
2003/5/3,9:15,22.7,0,51,0,22.7,0,57.5,0,18.5,0,22,0,22.2,0
2003/5/3,9:30,23.8,0,47,0,23.1,0,53.4,0,18.2,0,22.2,0,22.4,0
2003/5/3,9:45,24.3,0,46,0,23.5,0,52.1,0,18.3,0,22.3,0,22.6,0
2003/5/3,10:00,24.9,0,43,0,23.8,0,50,0,18.4,0,22.6,0,22.8,0
2003/5/3,10:15,25.4,0,40,0,24,0,46.7,0,18.5,0,22.8,0,23,0
2003/5/3,10:30,26.2,0,37,0,24.2,0,46.8,0,18.6,0,23,0,23.1,0
2003/5/3,10:45,26.2,0,35,0,24.5,0,42.7,0,18.6,0,23.2,0,23.2,0
2003/5/3,11:00,27,0,30,0,24.7,0,40.3,0,18.7,0,23.4,0,23.4,0
2003/5/3,11:15,28,0,33,0,24.7,0,42.5,0,18.4,0,23.5,0,23.5,0
2003/5/3,11:30,28.7,0,30,0,24.4,0,43.7,0,18.6,0,23.5,0,23.6,0
2003/5/3,11:45,29.5,0,28,0,24.3,0,42.9,0,18.7,0,23.4,0,23.6,0
2003/5/3,12:00,30.1,0,25,0,24.3,0,42.7,0,18.8,0,23.4,0,23.6,0
2003/5/3,12:15,30.1,0,27,0,24.2,0,43.7,0,18.9,0,23.5,0,23.6,0
2003/5/3,12:30,30.6,0,26,0,24.2,0,44.7,0,18.9,0,23.5,0,23.7,0
2003/5/3,12:45,30.9,0,25,0,24.2,0,44.3,0,19,0,23.5,0,23.7,0
2003/5/3,13:00,30.9,0,27,0,24.2,0,44.2,0,19.1,0,23.5,0,23.8,0
2003/5/3,13:15,30.8,0,25,0,24.2,0,45.1,0,19.2,0,23.6,0,23.9,0
2003/5/3,13:30,30.4,0,27,0,24.2,0,45.8,0,19.2,0,23.6,0,23.9,0
2003/5/3,13:45,30.3,0,26,0,24.3,0,45.6,0,19.3,0,23.7,0,24,0
2003/5/3,14:00,30.4,0,25,0,24.3,0,44.8,0,19.4,0,23.7,0,24.1,0
2003/5/3,14:15,30,0,26,0,24.3,0,44.8,0,19.4,0,23.8,0,24.1,0
2003/5/3,14:30,30.1,0,26,0,24.4,0,44.7,0,19.5,0,23.9,0,24.2,0
2003/5/3,14:45,29.7,0,27,0,24.4,0,45.2,0,19.6,0,23.9,0,24.3,0
2003/5/3,15:00,29.8,0,28,0,24.5,0,45.1,0,19.6,0,24,0,24.3,0
2003/5/3,15:15,29.2,0,29,0,24.6,0,45.4,0,19.7,0,24.1,0,24.4,0
2003/5/3,15:30,29,0,30,0,24.7,0,45.5,0,19.8,0,24.2,0,24.5,0
2003/5/3,15:45,28.9,0,29,0,24.7,0,45.4,0,19.9,0,24.3,0,24.6,0
2003/5/3,16:00,28.4,0,30,0,24.7,0,46.2,0,18.7,0,24.5,0,24.6,0
2003/5/3,16:15,27.7,0,31,0,24.9,0,43.1,0,18.9,0,24.7,0,24.7,0
2003/5/3,16:30,27.3,0,33,0,25,0,43.6,0,19.1,0,24.8,0,24.7,0
2003/5/3,16:45,27.1,0,36,0,25,0,44.6,0,19.2,0,24.8,0,24.8,0
2003/5/3,17:00,27.1,0,39,0,25,0,46,0,18.9,0,24.8,0,24.9,0
2003/5/3,17:15,25.9,0,40,0,24.9,0,47.1,0,19.2,0,24.7,0,25,0
2003/5/3,17:30,25.6,0,43,0,24.9,0,47.9,0,19.5,0,24.7,0,25.1,0
2003/5/3,17:45,24.7,0,43,0,24.8,0,47.8,0,19.7,0,24.6,0,25.2,0
2003/5/3,18:00,23.9,0,45,0,24.8,0,47.3,0,19.9,0,24.6,0,25.3,0
2003/5/3,18:15,23.9,0,46,0,24.7,0,47.7,0,20.1,0,24.5,0,25.3,0
2003/5/3,18:30,24.2,0,45,0,24.7,0,48.4,0,18.8,0,24.4,0,25.4,0
2003/5/3,18:45,23.9,0,47,0,24.7,0,48.9,0,19,0,24.4,0,25.4,0
2003/5/3,19:00,23.7,0,47,0,24.6,0,49.3,0,19.3,0,24.3,0,25.3,0
2003/5/3,19:15,22.7,0,52,0,24.6,0,51.3,0,19.5,0,24.3,0,25.3,0
2003/5/3,19:30,22.2,0,53,0,24.7,0,52,0,19.6,0,24.3,0,25.3,0
2003/5/3,19:45,21.5,0,58,0,24.7,0,52.1,0,18.6,0,24.3,0,25.2,0
2003/5/3,20:00,20.8,0,60,0,24.7,0,51.3,0,18.9,0,24.4,0,25.1,0
2003/5/3,20:15,20.7,0,60,0,24.8,0,54.8,0,19.1,0,24.4,0,25,0
2003/5/3,20:30,20.2,0,61,0,25,0,53.7,0,18.8,0,24.5,0,25,0
2003/5/3,20:45,20.2,0,58,0,24.9,0,55.2,0,19,0,24.6,0,24.9,0
2003/5/3,21:00,19.4,0,61,0,25.2,0,56.8,0,19.2,0,24.8,0,24.9,0
2003/5/3,21:15,19.4,0,61,0,25.7,0,54.1,0,19.5,0,25.2,0,24.8,0
2003/5/3,21:30,19.3,0,59,0,25.5,0,54.2,0,19.6,0,25.3,0,24.7,0
2003/5/3,21:45,19,0,58,0,25.5,0,53.8,0,19.8,0,25.2,0,24.7,0
2003/5/3,22:00,19,0,61,0,25.6,0,53.3,0,19.9,0,25.2,0,24.6,0
2003/5/3,22:15,18.9,0,70,0,25.5,0,53,0,20,0,25.2,0,24.5,0
2003/5/3,22:30,18.7,0,70,0,25.5,0,52.9,0,20.1,0,25.2,0,24.4,0
2003/5/3,22:45,18.6,0,63,0,25.5,0,52.9,0,20.2,0,25.2,0,24.3,0
2003/5/3,23:00,18.5,0,68,0,25.5,0,52.7,0,20.3,0,25.2,0,24.3,0
2003/5/3,23:15,18.1,0,57,0,25.3,0,51.8,0,19.1,0,25.2,0,24.3,0
2003/5/3,23:30,17.6,0,64,0,25.2,0,51.6,0,19.3,0,25.1,0,24.3,0
2003/5/3,23:45,17.3,0,63,0,25.1,0,51.5,0,19.5,0,25,0,24.3,0
2003/5/4,0:00,17.5,0,67,0,24.9,0,51.4,0,19.6,0,24.9,0,24.3,0
2003/5/4,0:15,17.3,0,71,0,24.8,0,51.5,0,19.8,0,24.9,0,24.3,0
2003/5/4,0:30,17.3,0,75,0,24.8,0,51.4,0,19.9,0,24.8,0,24.3,0
2003/5/4,0:45,17,0,73,0,24.7,0,51.7,0,20,0,24.7,0,24.4,0
2003/5/4,1:00,16.7,0,72,0,24.6,0,51.6,0,20.1,0,24.7,0,24.4,0
2003/5/4,1:15,16.5,0,73,0,24.4,0,51.9,0,20.2,0,24.6,0,24.4,0
2003/5/4,1:30,16.3,0,73,0,24.4,0,52,0,20.3,0,24.6,0,24.4,0
2003/5/4,1:45,16.4,0,72,0,24.3,0,52,0,20.4,0,24.5,0,24.4,0
2003/5/4,2:00,16.1,0,68,0,24.2,0,52,0,20.4,0,24.4,0,24.4,0
2003/5/4,2:15,16.3,0,69,0,24.1,0,52.2,0,20.5,0,24.4,0,24.4,0
2003/5/4,2:30,16.4,0,68,0,24,0,52,0,20.6,0,24.3,0,24.4,0
2003/5/4,2:45,16.2,0,67,0,23.9,0,52.1,0,20.6,0,24.2,0,24.4,0
2003/5/4,3:00,16.1,0,64,0,23.8,0,52.2,0,20.7,0,24.2,0,24.3,0
2003/5/4,3:15,16,0,68,0,23.8,0,52,0,20.7,0,24.1,0,24.3,0
2003/5/4,3:30,16.1,0,70,0,23.7,0,52.1,0,20.8,0,24,0,24.2,0
2003/5/4,3:45,16,0,71,0,23.6,0,52.1,0,20.8,0,24,0,24.1,0
2003/5/4,4:00,15.9,0,72,0,23.5,0,52.4,0,20.9,0,23.9,0,24.1,0
2003/5/4,4:15,15.4,0,72,0,23.4,0,52.3,0,20.9,0,23.8,0,24.1,0
2003/5/4,4:30,15.6,0,72,0,23.4,0,52.5,0,20.9,0,23.8,0,24.1,0
2003/5/4,4:45,15.7,0,72,0,23.3,0,52.5,0,21,0,23.7,0,24,0
2003/5/4,5:00,15.5,0,67,0,23.2,0,52.5,0,21,0,23.7,0,24,0
2003/5/4,5:15,15.6,0,66,0,23.2,0,52.5,0,21,0,23.6,0,24,0
2003/5/4,5:30,15.6,0,71,0,23.1,0,52.6,0,21,0,23.6,0,23.9,0
2003/5/4,5:45,15.5,0,72,0,23,0,52.6,0,21.1,0,23.5,0,23.9,0
2003/5/4,6:00,15.5,0,71,0,23,0,52.7,0,21.1,0,23.5,0,23.8,0
2003/5/4,6:15,15.5,0,71,0,22.9,0,52.7,0,21.1,0,23.4,0,23.8,0
2003/5/4,6:30,16.1,0,70,0,22.8,0,52.6,0,19.3,0,23.3,0,23.8,0
2003/5/4,6:45,16.9,0,67,0,22.6,0,51.7,0,19.5,0,23,0,23.7,0
2003/5/4,7:00,16.7,0,69,0,22.5,0,52.7,0,19.6,0,22.7,0,23.6,0
2003/5/4,7:15,17.7,0,65,0,22.4,0,53.3,0,19.7,0,22.7,0,23.5,0
2003/5/4,7:30,18.3,0,60,0,22.5,0,53.1,0,19.8,0,22.7,0,23.4,0
2003/5/4,7:45,19,0,65,0,22.5,0,55.3,0,19.8,0,22.7,0,23.3,0
2003/5/4,8:00,19.6,0,64,0,22.6,0,55.8,0,19.9,0,22.6,0,23.2,0
2003/5/4,8:15,20.7,0,57,0,22.7,0,54.7,0,18.9,0,22.6,0,23.1,0
2003/5/4,8:30,21,0,51,0,22.9,0,54.5,0,18.8,0,22.9,0,23,0
2003/5/4,8:45,21.5,0,49,0,23,0,52.9,0,18.7,0,22.9,0,22.8,0
2003/5/4,9:00,22.5,0,47,0,23,0,51.6,0,18.9,0,23,0,22.6,0
2003/5/4,9:15,23.1,0,46,0,23,0,52.6,0,19,0,23,0,22.6,0
2003/5/4,9:30,23.9,0,42,0,23.1,0,53.1,0,19.1,0,23,0,22.6,0
2003/5/4,9:45,24.7,0,38,0,23.2,0,52.9,0,19.2,0,23.1,0,22.7,0
2003/5/4,10:00,25.1,0,35,0,23.3,0,52.9,0,19.3,0,23.2,0,22.8,0
2003/5/4,10:15,25.1,0,34,0,23.3,0,52.2,0,19.4,0,23.2,0,23,0
2003/5/4,10:30,25.7,0,33,0,23.4,0,52,0,19.5,0,23.3,0,23,0
2003/5/4,10:45,25.5,0,34,0,23.4,0,51.8,0,19.5,0,23.3,0,23.1,0
2003/5/4,11:00,25.9,0,34,0,23.5,0,51.4,0,19.6,0,23.3,0,23.1,0
2003/5/4,11:15,26.5,0,32,0,23.6,0,50.9,0,19.7,0,23.4,0,23.1,0
2003/5/4,11:30,28.4,0,29,0,23.6,0,50.8,0,19.7,0,23.4,0,23.1,0
2003/5/4,11:45,28.8,0,27,0,23.7,0,50.6,0,19.8,0,23.5,0,23.4,0
2003/5/4,12:00,28.8,0,27,0,23.8,0,51.1,0,19.8,0,23.6,0,23.6,0
2003/5/4,12:15,28.8,0,30,0,23.9,0,50.7,0,19.9,0,23.6,0,23.7,0
2003/5/4,12:30,29.6,0,28,0,24,0,50.8,0,20,0,23.7,0,23.9,0
2003/5/4,12:45,28,0,31,0,24.1,0,50.9,0,20,0,23.8,0,24,0
2003/5/4,13:00,27.2,0,35,0,24.1,0,51.3,0,20.1,0,23.8,0,24,0
2003/5/4,13:15,26.1,0,38,0,24.2,0,51.4,0,20.2,0,23.9,0,23.9,0
2003/5/4,13:30,25.6,0,38,0,24.2,0,51.2,0,20.2,0,23.9,0,23.9,0
2003/5/4,13:45,26,0,37,0,24.2,0,46.3,0,18.9,0,24,0,23.8,0
2003/5/4,14:00,26.2,0,36,0,24.2,0,46.9,0,19.1,0,24,0,23.7,0
2003/5/4,14:15,25.8,0,37,0,24.2,0,47.3,0,19.4,0,24.1,0,23.7,0
2003/5/4,14:30,25.6,0,39,0,24.2,0,47.6,0,19.5,0,24.1,0,23.7,0
2003/5/4,14:45,24.9,0,42,0,24,0,49.5,0,19.6,0,24,0,23.7,0
2003/5/4,15:00,24.3,0,44,0,23.9,0,50,0,19.7,0,23.9,0,23.7,0
2003/5/4,15:15,24.2,0,44,0,23.9,0,49,0,19,0,23.8,0,23.7,0
2003/5/4,15:30,24.2,0,47,0,23.9,0,51.8,0,19.2,0,23.7,0,23.7,0
2003/5/4,15:45,24.2,0,43,0,23.7,0,47.1,0,19.4,0,23.5,0,23.6,0
2003/5/4,16:00,24,0,43,0,23.6,0,49,0,19.6,0,23.4,0,23.5,0
2003/5/4,16:15,23.3,0,51,0,23.4,0,55.7,0,18.7,0,23.3,0,23.3,0
2003/5/4,16:30,23.1,0,54,0,23.5,0,56.9,0,19,0,23.2,0,23.3,0
2003/5/4,16:45,22.8,0,55,0,23.5,0,56.8,0,19.3,0,23.2,0,23.4,0
2003/5/4,17:00,22.7,0,54,0,23.6,0,55.4,0,19.4,0,23.3,0,23.5,0
2003/5/4,17:15,23,0,54,0,23.3,0,55.9,0,19.6,0,23.1,0,23.4,0
2003/5/4,17:30,22.4,0,56,0,23.2,0,56.9,0,19.7,0,23.1,0,23.2,0
2003/5/4,17:45,22.1,0,59,0,23.1,0,59,0,19.8,0,22.9,0,23.1,0
2003/5/4,18:00,21.9,0,59,0,22.9,0,59,0,19.9,0,22.7,0,23.2,0
2003/5/4,18:15,21.9,0,62,0,22.6,0,62.4,0,20,0,22.4,0,23.1,0
2003/5/4,18:30,21.6,0,65,0,22.5,0,64,0,20.1,0,22.2,0,22.8,0
2003/5/4,18:45,21.5,0,67,0,22.5,0,67.3,0,20.1,0,22.2,0,22.9,0
2003/5/4,19:00,20.6,0,73,0,22.8,0,65.6,0,19.2,0,22.4,0,23,0
2003/5/4,19:15,20.7,0,73,0,22.9,0,65,0,18.9,0,22.5,0,23,0
2003/5/4,19:30,20.1,0,76,0,23.2,0,65.6,0,19.1,0,22.8,0,23.1,0
2003/5/4,19:45,19.6,0,79,0,23.4,0,63.9,0,19.2,0,23,0,22.9,0
2003/5/4,20:00,19.2,0,82,0,23.5,0,62.7,0,18.7,0,23.2,0,22.8,0
2003/5/4,20:15,19,0,84,0,23.6,0,65.8,0,19,0,23.3,0,22.8,0
2003/5/4,20:30,18.9,0,84,0,23.6,0,64.1,0,19.1,0,23.4,0,23,0
2003/5/4,20:45,18.8,0,84,0,23.7,0,64.7,0,19.3,0,23.5,0,23.1,0
2003/5/4,21:00,18.9,0,84,0,24.2,0,62.6,0,19.4,0,23.6,0,23.1,0
2003/5/4,21:15,18.9,0,84,0,24.1,0,61.9,0,19.5,0,23.8,0,23.2,0
2003/5/4,21:30,18.9,0,84,0,24,0,62,0,19.6,0,23.7,0,23.3,0
2003/5/4,21:45,18.8,0,84,0,23.9,0,61.5,0,19.7,0,23.6,0,23.3,0
2003/5/4,22:00,18.8,0,83,0,23.9,0,61.4,0,19.8,0,23.5,0,23.3,0
2003/5/4,22:15,18.8,0,83,0,23.9,0,61.3,0,19.9,0,23.5,0,23.3,0
2003/5/4,22:30,18.8,0,84,0,23.8,0,61.3,0,20,0,23.4,0,23.3,0
2003/5/4,22:45,18.8,0,86,0,23.7,0,62.2,0,20,0,23.4,0,23.4,0
2003/5/4,23:00,18.7,0,86,0,23.7,0,62.1,0,20.1,0,23.4,0,23.4,0
2003/5/4,23:15,18.5,0,88,0,23.7,0,62.2,0,20.2,0,23.4,0,23.4,0
2003/5/4,23:30,18.5,0,89,0,23.6,0,62.6,0,20.2,0,23.4,0,23.4,0
2003/5/4,23:45,18.5,0,90,0,23.5,0,62.9,0,20.3,0,23.3,0,23.4,0
2003/5/5,0:00,18.5,0,90,0,23.4,0,63.3,0,20.3,0,23.3,0,23.4,0
2003/5/5,0:15,18.1,0,92,0,23.3,0,63.4,0,20.4,0,23.3,0,23.5,0
2003/5/5,0:30,17.9,0,93,0,23.2,0,63.4,0,20.4,0,23.2,0,23.5,0
2003/5/5,0:45,18,0,93,0,23.2,0,63.6,0,20.4,0,23.2,0,23.5,0